ContactaLinksHome
    
DADES METEOROLÒGIQUES DE LES ÚLTIMES 24 HORES
 

Taire  Temperatura de l'aire  (ºC)
HumitatR  Humitat relativa de l'aire (%)
Pluja  Litres de pluja per metre cuadrat caiguts en 10 minuts (l/m²)
VelVent  Velocitat mitjana del vent (m/s)
DirVent  Direcció del vent  (º)
RadSolar  Intensitat de Radiació solar (w/m²)
PressAtm  Pressió atmosfèrica (mb)
  ***Dades sense verificar
DataTaireHumitatRPlujaVelVentDirVentRadSolarPressAtm
24/05/2019 14:20:0015.6880,04.7881211015
24/05/2019 14:10:0015.5880,04.7108781015
24/05/2019 14:00:0015.6890,14.6107931015
24/05/2019 13:50:0015.5890,14.8120631015
24/05/2019 13:40:0015.5890,04.1128821015
24/05/2019 13:30:0015.5890,03.0135581015
24/05/2019 13:20:0015.4890,12.11091201015
24/05/2019 13:10:0015.2890,01.7801871015
24/05/2019 13:00:0015.1890,01.71132441015
24/05/2019 12:50:0015.2890,11.4991951015
24/05/2019 12:40:0015.2880,30.71181381015
24/05/2019 12:30:0015.2880,50.4421071015
24/05/2019 12:20:0015.1880,50.4199651015
24/05/2019 12:10:0015.1880,10.2318991015
24/05/2019 12:00:0015.0880,00.51681291015
24/05/2019 11:50:0015.0880,30.8180951015
24/05/2019 11:40:0015.0880,83.4199401015
24/05/2019 11:30:0015.0880,52.8204421015
24/05/2019 11:20:0015.2881,32.5225501015
24/05/2019 11:10:0015.4881,64.4210591015
24/05/2019 11:00:0015.9851,25.3212491015
24/05/2019 10:50:0016.3840,14.3223531015
24/05/2019 10:40:0016.6820,23.8210961015
24/05/2019 10:30:0016.8800,11.41791021015
24/05/2019 10:20:0016.8790,01.61061081015
24/05/2019 10:10:0016.7800,01.7891181015
24/05/2019 10:00:0016.8810,01.53291321014
24/05/2019 9:50:0016.8810,01.73321411015
24/05/2019 9:40:0016.7810,02.43061141015
24/05/2019 9:30:0016.6810,02.42701001015
24/05/2019 9:20:0016.6800,02.3252961015
24/05/2019 9:10:0016.7790,02.4294821015
24/05/2019 9:00:0016.8780,02.6287711015
24/05/2019 8:50:0016.8780,01.9337691015
24/05/2019 8:40:0017.0770,02.0326791015
24/05/2019 8:30:0016.9750,01.3301891015
24/05/2019 8:20:0016.7760,01.42431091015
24/05/2019 8:10:0016.6770,01.32471411015
24/05/2019 8:00:0016.6770,10.6248991014
24/05/2019 7:50:0016.6760,01.2291851014
24/05/2019 7:40:0016.5760,12.3291761014
24/05/2019 7:30:0016.8760,02.3321711014
24/05/2019 7:20:0016.8750,02.1323461014
24/05/2019 7:10:0016.9750,02.2324501014
24/05/2019 7:00:0016.9730,02.3325621014
24/05/2019 6:50:0017.1710,02.4295671014
24/05/2019 6:40:0017.2690,01.8279441014
24/05/2019 6:30:0017.5670,02.1284361014
24/05/2019 6:20:0017.5660,03.1322301014
24/05/2019 6:10:0017.4690,02.3327341014
24/05/2019 6:00:0017.4720,02.5336381014
24/05/2019 5:50:0017.4730,01.4322381014
24/05/2019 5:40:0017.4740,01.8313301014
24/05/2019 5:30:0017.3740,02.1297241014
24/05/2019 5:20:0017.3760,01.9288201014
24/05/2019 5:10:0017.2760,02.0324141014
24/05/2019 5:00:0017.1760,02.5322101014
24/05/2019 4:50:0017.2760,03.032261014
24/05/2019 4:40:0017.1770,02.729211014
24/05/2019 4:30:0017.1790,02.329701014
24/05/2019 4:20:0016.9800,01.830301014
24/05/2019 4:10:0016.9820,01.926101014
24/05/2019 4:00:0017.1830,01.326801014
24/05/2019 3:50:0017.1830,01.325801014
24/05/2019 3:40:0016.9820,01.325801014
24/05/2019 3:30:0016.7830,01.524201014
24/05/2019 3:20:0016.5860,01.722301014
24/05/2019 3:10:0016.3880,01.624701014
24/05/2019 3:00:0016.1890,01.226701014
24/05/2019 2:50:0015.9900,01.228101014
24/05/2019 2:40:0016.4900,01.126101014
24/05/2019 2:30:0016.5900,00.425601014
24/05/2019 2:20:0016.5900,00.325701014
24/05/2019 2:10:0016.5900,01.223901014
24/05/2019 2:00:0016.6900,01.223701014
24/05/2019 1:50:0016.6900,00.916601014
24/05/2019 1:40:0016.7900,00.517601014
24/05/2019 1:30:0016.7900,00.915401014
24/05/2019 1:20:0016.8900,00.919701015
24/05/2019 1:10:0016.8900,00.618601015
24/05/2019 1:00:0016.9900,00.817901015
24/05/2019 0:50:0016.9890,00.616901015
24/05/2019 0:40:0016.8890,00.524501015
24/05/2019 0:30:0016.6890,00.324501015
24/05/2019 0:20:0016.6890,00.313401015
24/05/2019 0:10:0016.9890,01.011701015
24/05/2019 0:00:0016.9890,00.812101015
23/05/2019 23:50:0016.9890,00.98301015
23/05/2019 23:40:0016.8890,00.67301015
23/05/2019 23:30:0017.0890,00.47301015
23/05/2019 23:20:0017.0890,00.27701015
23/05/2019 23:10:0017.0890,00.23301015
23/05/2019 23:00:0017.0890,00.56501015
23/05/2019 22:50:0017.0890,00.42701015
23/05/2019 22:40:0017.0890,00.76101015
23/05/2019 22:30:0017.1890,00.56501015
23/05/2019 22:20:0017.0890,01.05901015
23/05/2019 22:10:0017.1890,00.86401015
23/05/2019 22:00:0017.1890,00.415101015
23/05/2019 21:50:0017.2890,00.616301016
23/05/2019 21:40:0017.2890,00.817101016
23/05/2019 21:30:0017.2890,00.815201016
23/05/2019 21:20:0017.2890,00.916101016
23/05/2019 21:10:0017.2890,01.08101016
23/05/2019 21:00:0017.2890,00.712501016
23/05/2019 20:50:0017.2890,01.35801016
23/05/2019 20:40:0017.2890,01.38201016
23/05/2019 20:30:0017.2890,01.47001015
23/05/2019 20:20:0017.3890,01.65901015
23/05/2019 20:10:0017.3890,01.96201015
23/05/2019 20:00:0017.3880,02.26301015
23/05/2019 19:50:0017.3880,01.58101015
23/05/2019 19:40:0017.4880,02.215801015
23/05/2019 19:30:0017.4880,02.716201015
23/05/2019 19:20:0017.4880,02.616301015
23/05/2019 19:10:0017.4880,03.017351015
23/05/2019 19:00:0017.3880,03.7183121015
23/05/2019 18:50:0017.4880,03.6184201015
23/05/2019 18:40:0017.4880,04.0176341015
23/05/2019 18:30:0017.4880,04.0173401015
23/05/2019 18:20:0017.4880,03.9183551015
23/05/2019 18:10:0017.4880,03.6178701015
23/05/2019 18:00:0017.4880,03.7163921015
23/05/2019 17:50:0017.4880,04.01661071015
23/05/2019 17:40:0017.5880,04.21691101015
23/05/2019 17:30:0017.4880,04.21661141015
23/05/2019 17:20:0017.4880,03.81621151015
23/05/2019 17:10:0017.4880,04.51781131015
23/05/2019 17:00:0017.5880,04.41791321015
23/05/2019 16:50:0017.5870,04.61751541015
23/05/2019 16:40:0017.5880,04.81751801015
23/05/2019 16:30:0017.5880,04.71711881015
23/05/2019 16:20:0017.5870,04.61682051015
23/05/2019 16:10:0017.6870,05.11672621015
23/05/2019 16:00:0017.6870,05.01792941015
23/05/2019 15:50:0017.6870,05.71844201015
23/05/2019 15:40:0017.6870,05.71835571015
23/05/2019 15:30:0017.6870,05.31685691015
23/05/2019 15:20:0017.7860,05.31634841015
23/05/2019 15:10:0017.7860,05.21616581015
23/05/2019 15:00:0017.6860,05.31687361016
23/05/2019 14:50:0017.6860,05.51675571016
23/05/2019 14:40:0017.7860,05.51834931016
23/05/2019 14:30:0017.7860,05.81806291016

ÚLTIMES FOTOS WEBCAM
Imatges del Pont
ÚLTIMES DADES

24/05/2019  
16:20h Local  (14:20 GMT)
 
 Velocitat mitjana del Vent
   4,7 m/s
 Direcció del Vent
   88º
 Humitat Relativa
   88 %
 Temperatura Aparent
   15,6 ºC
 Pluja Acumulada
   8,1 l/m²
      
 Temperatura de l'aigua    N/A
 Alçada d'ona    N/A
 Direcció d'ona    N/A
 Velocitat del corrent    N/A
 Direcció del corrent    N/A